Location: ???????
(55.3754°N, 39.3545°E)
Time: 20:31:36
(UTC+00:00)

Cosmos 2322 Rocket - Pass Details

Date: 14 April 2026
Orbit: 832 x 849 km, 71.0° (Epoch: 11 May)

Event Time Altitude Azimuth Distance (km) Brightness Sun altitude
Rises 23:20:13 0° 324° (NW) 3,393 5.6 -20.5°
Reaches altitude 10° 23:22:51 10° 333° (NNW) 2,457 5.0 -20.3°
Maximum altitude 23:28:03 37° 40° (NE) 1,289 3.7 -19.9°
Drops below altitude 10° 23:33:15 10° 107° (ESE) 2,456 4.8 -19.5°
Sets 23:35:53 0° 116° (ESE) 3,391 5.5 -19.2°
